Time,TemperatureF,DewpointF,PressureIn,WindDirection,WindDirectionDegrees,WindSpeedMPH,WindSpeedGustMPH,Humidity,HourlyPrecipIn,Conditions,Clouds,dailyrainin,SoftwareType,DateUTC
2013-02-11 00:00:00,38.8,37.5,30.40,SE,145,0.0,0.0,95,0.00,,,0.00,Wunderground v.1.15,2013-02-11 08:00:00,
2013-02-11 00:10:00,38.8,37.5,30.41,SE,145,0.0,0.0,95,0.00,,,0.00,Wunderground v.1.15,2013-02-11 08:10:00,
2013-02-11 00:20:00,38.8,37.5,30.41,SE,145,0.0,0.0,95,0.00,,,0.00,Wunderground v.1.15,2013-02-11 08:20:00,
2013-02-11 00:31:00,38.8,37.5,30.41,SE,145,0.0,0.0,95,0.00,,,0.00,Wunderground v.1.15,2013-02-11 08:31:00,
2013-02-11 00:36:00,38.8,37.5,30.42,SE,145,0.0,0.0,95,0.00,,,0.00,Wunderground v.1.15,2013-02-11 08:36:00,
2013-02-11 00:45:00,38.6,37.3,30.42,SE,145,0.0,0.0,95,0.00,,,0.00,Wunderground v.1.15,2013-02-11 08:45:00,
2013-02-11 00:55:00,38.6,37.3,30.42,SE,145,0.0,0.0,95,0.00,,,0.00,Wunderground v.1.15,2013-02-11 08:55:00,
2013-02-11 01:06:00,38.6,37.3,30.42,SE,145,0.0,0.0,95,0.00,,,0.00,Wunderground v.1.15,2013-02-11 09:06:00,
2013-02-11 01:15:00,38.5,37.2,30.42,SE,145,0.0,0.0,95,0.00,,,0.00,Wunderground v.1.15,2013-02-11 09:15:00,
2013-02-11 01:20:00,38.5,37.2,30.42,SE,145,0.0,0.0,95,0.00,,,0.00,Wunderground v.1.15,2013-02-11 09:20:00,
2013-02-11 01:25:00,38.5,37.2,30.42,SE,145,0.0,0.0,95,0.00,,,0.00,Wunderground v.1.15,2013-02-11 09:25:00,
2013-02-11 01:35:00,38.5,37.2,30.42,SE,145,0.0,0.0,95,0.00,,,0.00,Wunderground v.1.15,2013-02-11 09:35:00,
2013-02-11 01:45:00,38.5,37.2,30.42,SE,145,0.0,0.0,95,0.00,,,0.00,Wunderground v.1.15,2013-02-11 09:45:00,
2013-02-11 01:55:00,38.5,37.2,30.42,SE,145,0.0,0.0,95,0.00,,,0.00,Wunderground v.1.15,2013-02-11 09:55:00,
2013-02-11 02:10:00,38.6,37.3,30.42,SE,145,0.0,0.0,95,0.00,,,0.00,Wunderground v.1.15,2013-02-11 10:10:00,
2013-02-11 02:20:00,38.6,37.6,30.41,SE,145,0.0,0.0,96,0.00,,,0.00,Wunderground v.1.15,2013-02-11 10:20:00,
2013-02-11 02:30:00,38.6,37.6,30.41,SE,145,0.0,0.0,96,0.00,,,0.00,Wunderground v.1.15,2013-02-11 10:30:00,
2013-02-11 02:35:00,38.6,37.6,30.41,SE,145,0.0,0.0,96,0.00,,,0.00,Wunderground v.1.15,2013-02-11 10:35:00,
2013-02-11 02:45:00,38.6,37.6,30.41,SE,144,0.0,0.0,96,0.00,,,0.00,Wunderground v.1.15,2013-02-11 10:45:00,
2013-02-11 02:50:00,38.6,37.6,30.40,SE,144,0.0,0.0,96,0.00,,,0.00,Wunderground v.1.15,2013-02-11 10:50:00,
2013-02-11 02:55:00,38.6,37.6,30.40,SE,144,0.0,0.0,96,0.00,,,0.00,Wunderground v.1.15,2013-02-11 10:55:00,
2013-02-11 03:10:00,38.5,37.7,30.40,SE,144,0.0,0.0,97,0.00,,,0.00,Wunderground v.1.15,2013-02-11 11:10:00,
2013-02-11 03:20:00,38.5,37.7,30.40,SE,144,0.0,0.0,97,0.00,,,0.00,Wunderground v.1.15,2013-02-11 11:20:00,
2013-02-11 03:30:00,38.3,37.5,30.40,SE,144,0.0,0.0,97,0.00,,,0.00,Wunderground v.1.15,2013-02-11 11:30:00,
2013-02-11 03:40:00,38.3,37.5,30.40,SE,144,0.0,0.0,97,0.00,,,0.01,Wunderground v.1.15,2013-02-11 11:40:00,
2013-02-11 03:50:00,38.2,37.4,30.40,SE,144,0.0,0.0,97,0.00,,,0.01,Wunderground v.1.15,2013-02-11 11:50:00,
2013-02-11 04:00:00,38.0,37.2,30.40,SE,144,0.0,0.0,97,0.00,,,0.01,Wunderground v.1.15,2013-02-11 12:00:00,
2013-02-11 04:06:00,37.9,37.1,30.40,SE,144,0.0,0.0,97,0.00,,,0.01,Wunderground v.1.15,2013-02-11 12:06:00,
2013-02-11 04:15:00,37.8,36.8,30.40,SE,144,0.0,0.0,96,0.00,,,0.01,Wunderground v.1.15,2013-02-11 12:15:00,
2013-02-11 04:25:00,37.5,36.5,30.40,SE,144,0.0,0.0,96,0.00,,,0.01,Wunderground v.1.15,2013-02-11 12:25:00,
2013-02-11 04:30:00,37.5,36.5,30.40,SE,144,0.0,0.0,96,0.00,,,0.01,Wunderground v.1.15,2013-02-11 12:30:00,
2013-02-11 04:40:00,37.3,36.5,30.40,SE,144,0.0,0.0,97,0.00,,,0.01,Wunderground v.1.15,2013-02-11 12:40:00,
2013-02-11 04:50:00,37.3,36.5,30.41,SE,144,0.0,0.0,97,0.00,,,0.01,Wunderground v.1.15,2013-02-11 12:50:00,
2013-02-11 04:55:00,37.3,36.5,30.41,SE,144,0.0,0.0,97,0.00,,,0.01,Wunderground v.1.15,2013-02-11 12:55:00,
2013-02-11 05:10:00,37.5,36.7,30.41,SE,144,0.0,0.0,97,0.00,,,0.01,Wunderground v.1.15,2013-02-11 13:10:00,
2013-02-11 05:15:00,37.5,36.7,30.41,SE,144,0.0,0.0,97,0.00,,,0.01,Wunderground v.1.15,2013-02-11 13:15:00,
2013-02-11 05:25:00,37.5,36.7,30.41,SE,144,0.0,0.0,97,0.00,,,0.01,Wunderground v.1.15,2013-02-11 13:25:00,
2013-02-11 05:35:00,37.5,36.7,30.41,SE,144,0.0,0.0,97,0.00,,,0.01,Wunderground v.1.15,2013-02-11 13:35:00,
2013-02-11 05:41:00,37.5,36.7,30.41,SE,144,0.0,0.0,97,0.00,,,0.01,Wunderground v.1.15,2013-02-11 13:41:00,
2013-02-11 05:50:00,37.5,36.7,30.41,SE,144,0.0,0.0,97,0.00,,,0.01,Wunderground v.1.15,2013-02-11 13:50:00,
2013-02-11 06:00:00,37.5,36.7,30.41,SE,144,0.0,0.0,97,0.00,,,0.01,Wunderground v.1.15,2013-02-11 14:00:00,
2013-02-11 06:10:00,37.6,36.8,30.41,SE,144,0.0,0.0,97,0.00,,,0.01,Wunderground v.1.15,2013-02-11 14:10:00,
2013-02-11 06:15:00,37.6,36.8,30.41,SE,144,0.0,0.0,97,0.00,,,0.01,Wunderground v.1.15,2013-02-11 14:15:00,
2013-02-11 06:25:00,37.6,36.8,30.41,SE,144,0.0,0.0,97,0.00,,,0.01,Wunderground v.1.15,2013-02-11 14:25:00,
2013-02-11 06:31:00,37.6,36.8,30.41,SE,144,0.0,0.0,97,0.00,,,0.01,Wunderground v.1.15,2013-02-11 14:31:00,
2013-02-11 06:35:00,37.6,36.8,30.41,SE,144,0.0,0.0,97,0.00,,,0.01,Wunderground v.1.15,2013-02-11 14:35:00,
2013-02-11 06:45:00,37.8,37.0,30.41,SE,144,0.0,0.0,97,0.00,,,0.01,Wunderground v.1.15,2013-02-11 14:45:00,
2013-02-11 06:55:00,37.8,37.0,30.41,SE,144,0.0,0.0,97,0.00,,,0.01,Wunderground v.1.15,2013-02-11 14:55:00,
2013-02-11 07:10:00,37.8,37.0,30.41,SE,144,0.0,0.0,97,0.00,,,0.01,Wunderground v.1.15,2013-02-11 15:10:00,
2013-02-11 07:15:00,37.8,37.3,30.41,SE,144,0.0,0.0,98,0.00,,,0.01,Wunderground v.1.15,2013-02-11 15:15:00,
2013-02-11 07:20:00,37.8,37.3,30.41,SE,144,0.0,0.0,98,0.00,,,0.01,Wunderground v.1.15,2013-02-11 15:20:00,
2013-02-11 07:30:00,37.9,37.4,30.41,SE,144,0.0,0.0,98,0.00,,,0.01,Wunderground v.1.15,2013-02-11 15:30:00,
2013-02-11 07:35:00,37.9,37.4,30.41,SE,144,0.0,0.0,98,0.00,,,0.01,Wunderground v.1.15,2013-02-11 15:35:00,
2013-02-11 07:45:00,38.0,37.5,30.41,SE,144,0.0,0.0,98,0.00,,,0.01,Wunderground v.1.15,2013-02-11 15:45:00,
2013-02-11 07:55:00,38.2,37.7,30.40,SE,143,0.0,0.0,98,0.00,,,0.01,Wunderground v.1.15,2013-02-11 15:55:00,
2013-02-11 08:10:00,38.3,37.8,30.40,SE,143,0.0,0.0,98,0.00,,,0.01,Wunderground v.1.15,2013-02-11 16:10:00,
2013-02-11 08:15:00,38.3,37.8,30.40,SE,143,0.0,0.0,98,0.00,,,0.01,Wunderground v.1.15,2013-02-11 16:15:00,
2013-02-11 08:20:00,38.5,38.0,30.40,SE,143,0.0,0.0,98,0.00,,,0.01,Wunderground v.1.15,2013-02-11 16:20:00,
2013-02-11 08:30:00,38.6,38.1,30.40,SE,143,0.0,0.0,98,0.00,,,0.01,Wunderground v.1.15,2013-02-11 16:30:00,
2013-02-11 08:40:00,38.9,38.4,30.41,SE,143,0.0,0.0,98,0.00,,,0.01,Wunderground v.1.15,2013-02-11 16:40:00,
2013-02-11 08:50:00,39.1,38.6,30.41,SE,143,0.0,0.0,98,0.00,,,0.01,Wunderground v.1.15,2013-02-11 16:50:00,
2013-02-11 09:00:00,39.3,38.8,30.41,SE,143,0.0,0.0,98,0.00,,,0.01,Wunderground v.1.15,2013-02-11 17:00:00,
2013-02-11 09:10:00,39.5,39.0,30.41,SE,143,0.0,0.0,98,0.00,,,0.02,Wunderground v.1.15,2013-02-11 17:10:00,
2013-02-11 09:15:00,39.6,39.1,30.41,SE,143,0.0,0.0,98,0.00,,,0.02,Wunderground v.1.15,2013-02-11 17:15:00,
2013-02-11 09:25:00,39.8,39.3,30.42,SE,143,0.0,0.0,98,0.00,,,0.02,Wunderground v.1.15,2013-02-11 17:25:00,
2013-02-11 09:35:00,39.9,39.4,30.42,SE,143,0.0,0.0,98,0.00,,,0.02,Wunderground v.1.15,2013-02-11 17:35:00,
2013-02-11 09:41:00,40.1,39.6,30.42,SE,143,0.0,0.0,98,0.00,,,0.02,Wunderground v.1.15,2013-02-11 17:41:00,
2013-02-11 09:50:00,40.3,39.8,30.42,SE,143,0.0,0.0,98,0.00,,,0.02,Wunderground v.1.15,2013-02-11 17:50:00,
2013-02-11 09:55:00,40.6,40.1,30.42,SE,143,0.0,0.0,98,0.00,,,0.02,Wunderground v.1.15,2013-02-11 17:55:00,
2013-02-11 10:11:00,41.2,40.7,30.42,SE,141,0.0,0.0,98,0.00,,,0.02,Wunderground v.1.15,2013-02-11 18:11:00,
2013-02-11 10:20:00,41.6,41.1,30.42,SE,141,0.0,0.0,98,0.00,,,0.02,Wunderground v.1.15,2013-02-11 18:20:00,
2013-02-11 10:30:00,41.9,41.4,30.42,SE,141,0.0,0.0,98,0.00,,,0.02,Wunderground v.1.15,2013-02-11 18:30:00,
2013-02-11 10:41:00,42.2,41.7,30.42,SE,140,0.0,0.0,98,0.00,,,0.02,Wunderground v.1.15,2013-02-11 18:41:00,
2013-02-11 10:50:00,42.3,41.8,30.42,SE,141,0.0,0.0,98,0.00,,,0.02,Wunderground v.1.15,2013-02-11 18:50:00,
2013-02-11 10:56:00,42.6,42.1,30.42,SE,141,0.0,0.0,98,0.00,,,0.02,Wunderground v.1.15,2013-02-11 18:56:00,
2013-02-11 11:10:00,42.8,42.0,30.42,SSE,154,0.0,0.0,97,0.00,,,0.02,Wunderground v.1.15,2013-02-11 19:10:00,
2013-02-11 11:16:00,43.1,42.3,30.42,SSE,152,0.0,0.0,97,0.00,,,0.02,Wunderground v.1.15,2013-02-11 19:16:00,
2013-02-11 11:25:00,43.5,42.2,30.42,SSE,151,0.0,1.0,95,0.00,,,0.02,Wunderground v.1.15,2013-02-11 19:25:00,
2013-02-11 11:35:00,43.6,41.4,30.42,SE,141,0.0,0.0,92,0.00,,,0.02,Wunderground v.1.15,2013-02-11 19:35:00,
2013-02-11 11:41:00,43.8,41.6,30.42,SE,131,0.0,0.0,92,0.00,,,0.02,Wunderground v.1.15,2013-02-11 19:41:00,
2013-02-11 11:50:00,43.9,41.2,30.41,SE,127,0.0,0.0,90,0.00,,,0.02,Wunderground v.1.15,2013-02-11 19:50:00,
2013-02-11 12:00:00,44.3,41.8,30.41,ESE,123,0.0,0.0,91,0.00,,,0.02,Wunderground v.1.15,2013-02-11 20:00:00,
2013-02-11 12:10:00,44.5,41.2,30.41,East,88,0.0,2.0,88,0.00,,,0.02,Wunderground v.1.15,2013-02-11 20:10:00,
2013-02-11 12:25:00,44.8,41.2,30.41,SE,144,0.0,0.0,87,0.00,,,0.02,Wunderground v.1.15,2013-02-11 20:25:00,
2013-02-11 12:30:00,44.9,40.7,30.41,North,359,0.0,1.0,85,0.00,,,0.02,Wunderground v.1.15,2013-02-11 20:30:00,
2013-02-11 12:35:00,45.1,41.2,30.40,North,0,0.0,0.0,86,0.00,,,0.02,Wunderground v.1.15,2013-02-11 20:35:00,
2013-02-11 12:45:00,45.1,40.6,30.40,NE,56,0.0,0.0,84,0.00,,,0.02,Wunderground v.1.15,2013-02-11 20:45:00,
2013-02-11 12:55:00,45.2,40.3,30.40,SE,127,0.0,0.0,83,0.00,,,0.02,Wunderground v.1.15,2013-02-11 20:55:00,
2013-02-11 13:06:00,45.2,40.0,30.40,SSE,161,0.0,0.0,82,0.00,,,0.02,Wunderground v.1.15,2013-02-11 21:06:00,
2013-02-11 13:15:00,45.4,39.9,30.40,SSE,160,0.0,1.0,81,0.00,,,0.02,Wunderground v.1.15,2013-02-11 21:15:00,
2013-02-11 13:20:00,45.5,40.6,30.40,SSE,154,0.0,0.0,83,0.00,,,0.02,Wunderground v.1.15,2013-02-11 21:20:00,
2013-02-11 13:25:00,45.5,40.3,30.40,SE,145,0.0,0.0,82,0.00,,,0.02,Wunderground v.1.15,2013-02-11 21:25:00,
2013-02-11 13:35:00,45.5,39.7,30.40,SE,145,0.0,0.0,80,0.00,,,0.02,Wunderground v.1.15,2013-02-11 21:35:00,
2013-02-11 13:45:00,45.5,39.4,30.40,SE,140,0.0,0.0,79,0.00,,,0.02,Wunderground v.1.15,2013-02-11 21:45:00,
2013-02-11 13:50:00,45.5,40.6,30.40,SE,138,0.0,0.0,83,0.00,,,0.02,Wunderground v.1.15,2013-02-11 21:50:00,
2013-02-11 14:00:00,45.8,39.7,30.40,SE,140,0.0,0.0,79,0.00,,,0.02,Wunderground v.1.15,2013-02-11 22:00:00,
2013-02-11 14:10:00,46.1,40.6,30.39,SE,137,0.0,0.0,81,0.00,,,0.03,Wunderground v.1.15,2013-02-11 22:10:00,
2013-02-11 14:20:00,46.1,40.3,30.39,West,277,0.0,0.0,80,0.00,,,0.03,Wunderground v.1.15,2013-02-11 22:20:00,
2013-02-11 14:25:00,46.1,40.3,30.39,West,277,0.0,0.0,80,0.00,,,0.03,Wunderground v.1.15,2013-02-11 22:25:00,
2013-02-11 14:35:00,46.2,41.0,30.39,West,268,0.0,0.0,82,0.00,,,0.03,Wunderground v.1.15,2013-02-11 22:35:00,
2013-02-11 14:45:00,46.2,40.4,30.39,West,268,0.0,0.0,80,0.00,,,0.03,Wunderground v.1.15,2013-02-11 22:45:00,
2013-02-11 14:55:00,46.4,40.2,30.39,West,268,0.0,0.0,79,0.00,,,0.03,Wunderground v.1.15,2013-02-11 22:55:00,
2013-02-11 15:01:00,46.4,39.9,30.39,South,174,0.0,0.0,78,0.00,,,0.03,Wunderground v.1.15,2013-02-11 23:01:00,
2013-02-11 15:10:00,46.4,39.6,30.39,South,175,0.0,0.0,77,0.00,,,0.03,Wunderground v.1.15,2013-02-11 23:10:00,
2013-02-11 15:21:00,46.5,40.3,30.39,SSE,168,0.0,0.0,79,0.00,,,0.03,Wunderground v.1.15,2013-02-11 23:21:00,
2013-02-11 15:30:00,46.5,39.0,30.39,SSE,168,0.0,0.0,75,0.00,,,0.03,Wunderground v.1.15,2013-02-11 23:30:00,
2013-02-11 15:40:00,46.4,38.9,30.39,SSE,168,0.0,0.0,75,0.00,,,0.03,Wunderground v.1.15,2013-02-11 23:40:00,
2013-02-11 15:45:00,46.4,39.9,30.39,SSE,168,0.0,0.0,78,0.00,,,0.03,Wunderground v.1.15,2013-02-11 23:45:00,
2013-02-11 15:55:00,46.4,40.2,30.39,SSE,168,0.0,0.0,79,0.00,,,0.03,Wunderground v.1.15,2013-02-11 23:55:00,
2013-02-11 16:10:00,46.4,40.2,30.39,SSE,165,0.0,0.0,79,0.00,,,0.03,Wunderground v.1.15,2013-02-12 00:10:00,
2013-02-11 16:20:00,46.2,39.7,30.39,SSE,165,0.0,0.0,78,0.00,,,0.03,Wunderground v.1.15,2013-02-12 00:20:00,
2013-02-11 16:30:00,46.2,40.4,30.39,SSE,165,0.0,0.0,80,0.00,,,0.03,Wunderground v.1.15,2013-02-12 00:30:00,
2013-02-11 16:35:00,46.1,40.3,30.39,SSE,165,0.0,0.0,80,0.00,,,0.03,Wunderground v.1.15,2013-02-12 00:35:00,
2013-02-11 16:40:00,46.1,39.6,30.39,SSE,165,0.0,0.0,78,0.00,,,0.03,Wunderground v.1.15,2013-02-12 00:40:00,
2013-02-11 16:50:00,46.0,40.5,30.39,SSE,165,0.0,0.0,81,0.00,,,0.03,Wunderground v.1.15,2013-02-12 00:50:00,
2013-02-11 17:00:00,45.8,40.0,30.39,SSE,165,0.0,0.0,80,0.00,,,0.03,Wunderground v.1.15,2013-02-12 01:00:00,
2013-02-11 17:10:00,45.5,39.4,30.39,SSE,165,0.0,0.0,79,0.00,,,0.03,Wunderground v.1.15,2013-02-12 01:10:00,
2013-02-11 17:20:00,45.4,40.2,30.40,NE,55,0.0,0.0,82,0.00,,,0.03,Wunderground v.1.15,2013-02-12 01:20:00,
2013-02-11 17:25:00,45.2,39.7,30.40,NE,51,0.0,0.0,81,0.00,,,0.03,Wunderground v.1.15,2013-02-12 01:25:00,
2013-02-11 17:35:00,45.1,39.9,30.40,NE,51,0.0,0.0,82,0.00,,,0.03,Wunderground v.1.15,2013-02-12 01:35:00,
2013-02-11 17:45:00,44.9,40.0,30.40,NE,51,0.0,0.0,83,0.00,,,0.03,Wunderground v.1.15,2013-02-12 01:45:00,
2013-02-11 17:50:00,44.8,40.3,30.40,NE,51,0.0,0.0,84,0.00,,,0.03,Wunderground v.1.15,2013-02-12 01:50:00,
2013-02-11 18:00:00,44.6,40.1,30.40,NE,51,0.0,0.0,84,0.00,,,0.03,Wunderground v.1.15,2013-02-12 02:00:00,
2013-02-11 18:10:00,44.5,40.6,30.40,NE,51,0.0,0.0,86,0.00,,,0.03,Wunderground v.1.15,2013-02-12 02:10:00,
2013-02-11 18:15:00,44.5,40.3,30.40,NE,51,0.0,0.0,85,0.00,,,0.03,Wunderground v.1.15,2013-02-12 02:15:00,
2013-02-11 18:25:00,44.3,40.4,30.41,NE,51,0.0,0.0,86,0.00,,,0.03,Wunderground v.1.15,2013-02-12 02:25:00,
2013-02-11 18:31:00,44.2,40.6,30.41,NE,51,0.0,0.0,87,0.00,,,0.03,Wunderground v.1.15,2013-02-12 02:31:00,
2013-02-11 18:36:00,44.2,40.6,30.41,NE,51,0.0,0.0,87,0.00,,,0.03,Wunderground v.1.15,2013-02-12 02:36:00,
2013-02-11 18:45:00,44.1,40.2,30.41,NE,51,0.0,0.0,86,0.00,,,0.03,Wunderground v.1.15,2013-02-12 02:45:00,
2013-02-11 18:55:00,43.9,40.3,30.41,NE,51,0.0,0.0,87,0.00,,,0.03,Wunderground v.1.15,2013-02-12 02:55:00,
2013-02-11 19:10:00,43.8,40.2,30.40,NE,51,0.0,0.0,87,0.00,,,0.03,Wunderground v.1.15,2013-02-12 03:10:00,
2013-02-11 19:21:00,43.6,40.3,30.40,NE,51,0.0,0.0,88,0.00,,,0.03,Wunderground v.1.15,2013-02-12 03:21:00,
2013-02-11 19:30:00,43.5,40.5,30.40,NE,51,0.0,0.0,89,0.00,,,0.03,Wunderground v.1.15,2013-02-12 03:30:00,
2013-02-11 19:36:00,43.5,40.5,30.40,NE,51,0.0,0.0,89,0.00,,,0.03,Wunderground v.1.15,2013-02-12 03:36:00,
2013-02-11 19:45:00,43.3,40.3,30.40,NE,51,0.0,0.0,89,0.00,,,0.03,Wunderground v.1.15,2013-02-12 03:45:00,
2013-02-11 19:55:00,43.2,40.5,30.40,NE,51,0.0,0.0,90,0.00,,,0.03,Wunderground v.1.15,2013-02-12 03:55:00,
2013-02-11 20:11:00,43.1,40.4,30.40,NE,51,0.0,0.0,90,0.00,,,0.03,Wunderground v.1.15,2013-02-12 04:11:00,
2013-02-11 20:20:00,42.9,40.2,30.41,NE,51,0.0,0.0,90,0.00,,,0.03,Wunderground v.1.15,2013-02-12 04:20:00,
2013-02-11 20:25:00,42.8,40.1,30.41,NE,51,0.0,0.0,90,0.00,,,0.03,Wunderground v.1.15,2013-02-12 04:25:00,
2013-02-11 20:35:00,42.8,40.4,30.41,NE,51,0.0,0.0,91,0.00,,,0.03,Wunderground v.1.15,2013-02-12 04:35:00,
2013-02-11 20:46:00,42.8,40.4,30.41,NE,51,0.0,0.0,91,0.00,,,0.03,Wunderground v.1.15,2013-02-12 04:46:00,
2013-02-11 20:55:00,42.6,40.4,30.40,NE,51,0.0,0.0,92,0.00,,,0.03,Wunderground v.1.15,2013-02-12 04:55:00,
2013-02-11 21:00:00,42.6,40.4,30.40,NE,51,0.0,0.0,92,0.00,,,0.03,Wunderground v.1.15,2013-02-12 05:00:00,
2013-02-11 21:10:00,42.6,40.4,30.40,NE,51,0.0,0.0,92,0.00,,,0.03,Wunderground v.1.15,2013-02-12 05:10:00,
2013-02-11 21:15:00,42.6,40.2,30.40,NE,51,0.0,0.0,91,0.00,,,0.03,Wunderground v.1.15,2013-02-12 05:15:00,
2013-02-11 21:25:00,42.6,40.2,30.40,NE,51,0.0,0.0,91,0.00,,,0.03,Wunderground v.1.15,2013-02-12 05:25:00,
2013-02-11 21:31:00,42.6,40.2,30.40,NE,51,0.0,0.0,91,0.00,,,0.03,Wunderground v.1.15,2013-02-12 05:31:00,
2013-02-11 21:36:00,42.6,40.2,30.40,NE,51,0.0,0.0,91,0.00,,,0.03,Wunderground v.1.15,2013-02-12 05:36:00,
2013-02-11 21:45:00,42.5,40.1,30.40,NE,51,0.0,0.0,91,0.00,,,0.03,Wunderground v.1.15,2013-02-12 05:45:00,
2013-02-11 21:50:00,42.5,40.1,30.40,NE,51,0.0,0.0,91,0.00,,,0.03,Wunderground v.1.15,2013-02-12 05:50:00,
2013-02-11 21:55:00,42.5,40.1,30.40,NE,51,0.0,0.0,91,0.00,,,0.03,Wunderground v.1.15,2013-02-12 05:55:00,
2013-02-11 22:10:00,42.3,40.1,30.41,NE,51,0.0,0.0,92,0.00,,,0.03,Wunderground v.1.15,2013-02-12 06:10:00,
2013-02-11 22:20:00,42.3,40.1,30.40,NE,51,0.0,0.0,92,0.00,,,0.03,Wunderground v.1.15,2013-02-12 06:20:00,
2013-02-11 22:30:00,42.3,40.1,30.40,NE,51,0.0,0.0,92,0.00,,,0.03,Wunderground v.1.15,2013-02-12 06:30:00,
2013-02-11 22:41:00,42.2,40.0,30.40,NE,51,0.0,0.0,92,0.00,,,0.03,Wunderground v.1.15,2013-02-12 06:41:00,
2013-02-11 22:50:00,42.2,40.0,30.41,NE,51,0.0,0.0,92,0.00,,,0.03,Wunderground v.1.15,2013-02-12 06:50:00,
2013-02-11 23:00:00,42.2,40.0,30.41,NE,51,0.0,0.0,92,0.00,,,0.03,Wunderground v.1.15,2013-02-12 07:00:00,
2013-02-11 23:10:00,42.1,39.9,30.41,NE,51,0.0,0.0,92,0.00,,,0.03,Wunderground v.1.15,2013-02-12 07:10:00,
2013-02-11 23:20:00,41.9,40.0,30.42,NE,51,0.0,0.0,93,0.00,,,0.03,Wunderground v.1.15,2013-02-12 07:20:00,
2013-02-11 23:31:00,41.9,40.0,30.42,NE,51,0.0,0.0,93,0.00,,,0.03,Wunderground v.1.15,2013-02-12 07:31:00,
2013-02-11 23:40:00,41.9,40.0,30.42,NE,51,0.0,0.0,93,0.00,,,0.03,Wunderground v.1.15,2013-02-12 07:40:00,
2013-02-11 23:50:00,41.8,39.9,30.42,NE,51,0.0,0.0,93,0.00,,,0.03,Wunderground v.1.15,2013-02-12 07:50:00,
2013-02-11 23:56:00,41.8,39.9,30.42,NE,51,0.0,0.0,93,0.00,,,0.03,Wunderground v.1.15,2013-02-12 07:56:00,